COSMOS 1275 DEB, 17639

Orbit data source: Space-Track

COSMOS 1275 DEB, 17639 is space debris in LEO originally from a launch on Thu, 04 Jun 1981 UTC launched from the Plesetsk Missile And Space Complex (PKMTR). Debris objects in space refer to the collection of defunct objects orbiting the Earth. Examples of debris include non-operational satellites, rocket bodies, and fragments generated from explosions, collisions, or faulty payload assembly.

Loading next visibility...
Identifier
17639, 1981-053LJ
Orbit
LEO
Country
Flag of CISCIS
Related business
Manufacturer
Unknown
Mission
Spacecraft
Bus & Motor
Unknown
Mass
Unknown
Launch date (UTC)
1981-06-04 (45 years ago)
Launch vehicle
Unknown
Launch site
Plesetsk Missile And Space Complex (PKMTR)
Object type
Payload
Rocket body
Debris
Shape & HBR
Unknown shape, 0.1 m
Radar Cross Section
Small (<0.1 m²)

Expand to show TLE details & history
Last TLE update: 13 hours ago

TLE from 13 hours ago
0 COSMOS 1275 DEB
1 17639U 81053LJ  26063.31178435  .00001564  00000-0  18234-2 0  9998
2 17639  83.0001 192.0790 0155747  98.9682 294.4547 13.62969151 16688
Epoch: 2026-03-04T07:28Z
TLE epoch observation values (Epoch: 2026-03-04T07:28:58.167Z)
Latitude
31.57711°
Longitude
-77.93606°
Altitude
982.691 km
Speed
7.386 km/s
True Right ascension
13h 05m 32s
True Declination
31° 25' 43"
Sunlit
Object was in full shadow at epoch
Visualization orbit readout
Latitude
Unknown
Longitude
Unknown
Altitude
Unknown
Speed
Unknown
Apparent Right ascension
Unknown
Apparent Declination
Unknown
Sunlit
N/A
Visualization observer readout
Local Sidereal Time
00:06:07
Azimuth
Unknown
Elevation
Unknown
Doppler factor
Unknown
Orbital elements
Apogee altitude
1,137.34 km
Perigee altitude
906.827 km
Semi-major axis
7,400.22 km
Eccentricity
0.01557
Inclination
83.0001°
RAAN
192.079°
Arg. of periapsis
98.9682°
True anomaly
292.81711°
Mean anomaly
294.4547°
Eccentric anomaly
293.6372°
Mean motion
3.40939 °/min
Orbital period
105.59 mins
BSTAR
0.0018234
Loading maneuver chart data...
Computing Atmospheric mass density...

Documentation

Showing up to 5 results
|